| time (UTC) | temp F | wind direction | speed MPH | gust MPH | rain 1hr in | rain 24hr in | rain mn in | humidity % | barometer mb |
| 20260831163104 | 79 | 217 | 2.0 | 3.0 | 0.00 | 0.02 | 0.01 | 68 | 1020.4 |
| 20260831162604 | 79 | 213 | 1.0 | 5.0 | 0.00 | 0.02 | 0.01 | 65 | 1020.3 |
| 20260831162104 | 79 | 173 | 3.0 | 7.0 | 0.00 | 0.02 | 0.01 | 59 | 1020.4 |
| 20260831161104 | 79 | 166 | 2.0 | 6.0 | 0.00 | 0.02 | 0.01 | 58 | 1020.5 |
| 20260831160604 | 79 | 172 | 1.0 | 6.0 | 0.00 | 0.02 | 0.01 | 60 | 1020.4 |
| 20260831160105 | 79 | 154 | 2.0 | 5.0 | 0.00 | 0.02 | 0.01 | 59 | 1020.5 |
| 20260831155604 | 79 | 182 | 2.0 | 6.0 | 0.00 | 0.02 | 0.01 | 60 | 1020.5 |
| 20260831155104 | 79 | 163 | 2.0 | 5.0 | 0.00 | 0.02 | 0.01 | 65 | 1020.5 |
| 20260831154604 | 79 | 142 | 2.0 | 6.0 | 0.00 | 0.02 | 0.01 | 59 | 1020.5 |
| 20260831154104 | 78 | 172 | 3.0 | 8.0 | 0.00 | 0.02 | 0.01 | 60 | 1020.5 |
| 20260831153604 | 78 | 182 | 1.0 | 5.0 | 0.00 | 0.02 | 0.01 | 68 | 1020.6 |
| 20260831153104 | 78 | 149 | 3.0 | 7.0 | 0.00 | 0.02 | 0.01 | 63 | 1020.7 |
| 20260831152604 | 78 | 165 | 2.0 | 6.0 | 0.00 | 0.02 | 0.01 | 67 | 1020.6 |
| 20260831151104 | 77 | 200 | 2.0 | 5.0 | 0.00 | 0.02 | 0.01 | 66 | 1020.6 |
| 20260831150604 | 77 | 209 | 2.0 | 5.0 | 0.00 | 0.02 | 0.01 | 64 | 1020.6 |
| 20260831150104 | 77 | 177 | 3.0 | 9.0 | 0.00 | 0.02 | 0.01 | 62 | 1020.6 |
| 20260831145604 | 77 | 170 | 2.0 | 10.0 | 0.00 | 0.02 | 0.01 | 65 | 1020.6 |
| 20260831145104 | 76 | 157 | 2.0 | 5.0 | 0.00 | 0.02 | 0.01 | 70 | 1020.7 |
| 20260831144605 | 76 | 0 | 2.0 | 5.0 | 0.00 | 0.02 | 0.01 | 69 | 1020.8 |
| 20260831143604 | 76 | 182 | 1.0 | 6.0 | 0.00 | 0.02 | 0.01 | 70 | 1020.8 |
| 20260831143104 | 75 | 187 | 2.0 | 6.0 | 0.00 | 0.02 | 0.01 | 69 | 1020.9 |
| 20260831142604 | 75 | 155 | 1.0 | 3.0 | 0.00 | 0.02 | 0.01 | 73 | 1020.8 |
| 20260831141604 | 75 | 182 | 2.0 | 5.0 | 0.00 | 0.02 | 0.01 | 76 | 1020.7 |
| 20260831141104 | 75 | 144 | 2.0 | 5.0 | 0.00 | 0.02 | 0.01 | 78 | 1020.6 |
| 20260831140604 | 74 | 155 | 1.0 | 3.0 | 0.00 | 0.02 | 0.01 | 75 | 1020.6 |
| 20260831140104 | 74 | 175 | 4.0 | 7.0 | 0.00 | 0.02 | 0.01 | 74 | 1020.5 |
| 20260831135604 | 74 | 168 | 3.0 | 8.0 | 0.00 | 0.02 | 0.01 | 76 | 1020.5 |
| 20260831134604 | 74 | 150 | 3.0 | 8.0 | 0.00 | 0.02 | 0.01 | 78 | 1020.5 |
| 20260831134104 | 74 | 176 | 4.0 | 10.0 | 0.00 | 0.02 | 0.01 | 79 | 1020.5 |
| 20260831133605 | 73 | 139 | 2.0 | 7.0 | 0.00 | 0.02 | 0.01 | 80 | 1020.4 |
| 20260831133104 | 73 | 163 | 2.0 | 5.0 | 0.00 | 0.02 | 0.01 | 80 | 1020.5 |
| 20260831132104 | 72 | 202 | 2.0 | 8.0 | 0.00 | 0.02 | 0.01 | 82 | 1020.4 |
| 20260831131604 | 72 | 173 | 3.0 | 9.0 | 0.00 | 0.02 | 0.01 | 84 | 1020.4 |
| 20260831131104 | 72 | 142 | 2.0 | 6.0 | 0.00 | 0.02 | 0.01 | 86 | 1020.3 |
| 20260831130604 | 71 | 167 | 2.0 | 5.0 | 0.00 | 0.02 | 0.01 | 89 | 1020.3 |
| 20260831130104 | 70 | 250 | 1.0 | 3.0 | 0.00 | 0.02 | 0.01 | 91 | 1020.4 |
| 20260831125604 | 70 | 211 | 1.0 | 2.0 | 0.00 | 0.02 | 0.01 | 91 | 1020.4 |
| 20260831124604 | 69 | 246 | 1.0 | 3.0 | 0.00 | 0.02 | 0.01 | 95 | 1020.5 |
| 20260831124105 | 68 | 253 | 0.0 | 3.0 | 0.00 | 0.02 | 0.01 | 96 | 1020.5 |
| 20260831123104 | 67 | 240 | 1.0 | 2.0 | 0.00 | 0.02 | 0.01 | 96 | 1020.4 |
| 20260831122604 | 67 | 248 | 0.0 | 3.0 | 0.00 | 0.02 | 0.01 | 97 | 1020.4 |
| 20260831122104 | 67 | 234 | 1.0 | 3.0 | 0.00 | 0.02 | 0.01 | 97 | 1020.5 |
| 20260831121604 | 67 | 142 | 0.0 | 1.0 | 0.00 | 0.02 | 0.01 | 97 | 1020.3 |
| 20260831121104 | 66 | 142 | 0.0 | 2.0 | 0.00 | 0.02 | 0.01 | 97 | 1020.3 |
| 20260831120604 | 66 | 139 | 1.0 | 2.0 | 0.00 | 0.02 | 0.01 | 97 | 1020.4 |
| 20260831120104 | 65 | 139 | 1.0 | 2.0 | 0.00 | 0.02 | 0.01 | 97 | 1020.3 |
| 20260831115604 | 65 | 139 | 0.0 | 3.0 | 0.00 | 0.02 | 0.01 | 97 | 1020.3 |
| 20260831115104 | 65 | 184 | 1.0 | 2.0 | 0.00 | 0.02 | 0.01 | 97 | 1020.3 |
| 20260831114104 | 65 | 144 | 2.0 | 3.0 | 0.00 | 0.02 | 0.01 | 97 | 1020.1 |
| 20260831113604 | 64 | 243 | 1.0 | 3.0 | 0.00 | 0.02 | 0.01 | 96 | 1020.1 |
| 20260831113104 | 64 | 254 | 1.0 | 3.0 | 0.00 | 0.02 | 0.01 | 96 | 1020.1 |
| 20260831112604 | 64 | 243 | 0.0 | 2.0 | 0.00 | 0.02 | 0.01 | 96 | 1020.0 |
| 20260831112104 | 64 | 245 | 0.0 | 1.0 | 0.00 | 0.02 | 0.01 | 96 | 1019.9 |
| 20260831111604 | 64 | 245 | 0.0 | 1.0 | 0.00 | 0.02 | 0.01 | 96 | 1019.9 |
| 20260831111104 | 64 | 245 | 1.0 | 1.0 | 0.00 | 0.02 | 0.01 | 96 | 1019.7 |
| 20260831110604 | 63 | 245 | 0.0 | 1.0 | 0.00 | 0.02 | 0.01 | 96 | 1019.7 |
| 20260831110103 | 63 | 245 | 0.0 | 1.0 | 0.00 | 0.02 | 0.01 | 96 | 1019.6 |
| 20260831105604 | 63 | 245 | 0.0 | 0.0 | 0.00 | 0.02 | 0.01 | 96 | 1019.5 |
| 20260831105103 | 63 | 245 | 0.0 | 1.0 | 0.00 | 0.02 | 0.01 | 96 | 1019.5 |
| 20260831104603 | 63 | 245 | 1.0 | 1.0 | 0.00 | 0.02 | 0.01 | 96 | 1019.4 |
| 20260831104104 | 63 | 245 | 0.0 | 1.0 | 0.00 | 0.02 | 0.01 | 96 | 1019.4 |
| 20260831103603 | 63 | 245 | 1.0 | 1.0 | 0.00 | 0.02 | 0.01 | 96 | 1019.5 |
| 20260831103104 | 63 | 245 | 0.0 | 1.0 | 0.00 | 0.02 | 0.01 | 96 | 1019.5 |
| 20260831102604 | 63 | 245 | 1.0 | 1.0 | 0.00 | 0.02 | 0.01 | 96 | 1019.3 |
| 20260831102104 | 63 | 245 | 0.0 | 2.0 | 0.00 | 0.02 | 0.01 | 96 | 1019.3 |
| 20260831101604 | 63 | 257 | 1.0 | 3.0 | 0.00 | 0.02 | 0.01 | 96 | 1019.3 |
| 20260831100604 | 63 | 144 | 1.0 | 2.0 | 0.00 | 0.02 | 0.01 | 95 | 1019.3 |
| 20260831100104 | 63 | 144 | 1.0 | 1.0 | 0.00 | 0.02 | 0.01 | 95 | 1019.3 |
| 20260831095604 | 63 | 144 | 0.0 | 0.0 | 0.00 | 0.02 | 0.01 | 95 | 1019.5 |
| 20260831095103 | 63 | 144 | 0.0 | 0.0 | 0.00 | 0.02 | 0.01 | 95 | 1019.5 |
| 20260831094604 | 63 | 144 | 0.0 | 0.0 | 0.00 | 0.02 | 0.01 | 95 | 1019.4 |
| 20260831093603 | 63 | 144 | 0.0 | 0.0 | 0.00 | 0.02 | 0.01 | 95 | 1019.4 |
| 20260831093104 | 63 | 144 | 0.0 | 1.0 | 0.00 | 0.02 | 0.01 | 95 | 1019.4 |
| 20260831092609 | 63 | 144 | 0.0 | 1.0 | 0.00 | 0.02 | 0.01 | 95 | 1019.3 |
| 20260831092103 | 63 | 144 | 0.0 | 2.0 | 0.00 | 0.02 | 0.01 | 95 | 1019.2 |
| 20260831091604 | 63 | 144 | 1.0 | 2.0 | 0.00 | 0.02 | 0.01 | 95 | 1019.2 |
| 20260831091104 | 63 | 144 | 1.0 | 2.0 | 0.00 | 0.02 | 0.01 | 95 | 1019.2 |
| 20260831090604 | 63 | 144 | 1.0 | 2.0 | 0.00 | 0.02 | 0.01 | 94 | 1019.2 |
| 20260831090104 | 63 | 144 | 0.0 | 0.0 | 0.00 | 0.02 | 0.01 | 94 | 1019.1 |
| 20260831085604 | 63 | 144 | 0.0 | 0.0 | 0.00 | 0.02 | 0.01 | 94 | 1019.1 |
| 20260831085104 | 63 | 144 | 0.0 | 0.0 | 0.00 | 0.02 | 0.01 | 94 | 1019.2 |
| 20260831084604 | 63 | 144 | 0.0 | 0.0 | 0.00 | 0.02 | 0.01 | 94 | 1019.3 |
| 20260831084104 | 63 | 144 | 0.0 | 0.0 | 0.00 | 0.02 | 0.01 | 94 | 1019.4 |
| 20260831083604 | 64 | 144 | 0.0 | 0.0 | 0.00 | 0.02 | 0.01 | 94 | 1019.4 |
| 20260831083104 | 64 | 144 | 0.0 | 1.0 | 0.00 | 0.02 | 0.01 | 94 | 1019.3 |
| 20260831082604 | 64 | 144 | 0.0 | 1.0 | 0.00 | 0.02 | 0.01 | 94 | 1019.3 |
| 20260831082104 | 64 | 144 | 0.0 | 1.0 | 0.00 | 0.02 | 0.01 | 94 | 1019.2 |
| 20260831081604 | 64 | 144 | 0.0 | 1.0 | 0.00 | 0.02 | 0.01 | 94 | 1019.2 |
| 20260831081104 | 64 | 144 | 1.0 | 2.0 | 0.00 | 0.02 | 0.01 | 94 | 1019.3 |
| 20260831080604 | 64 | 144 | 0.0 | 1.0 | 0.00 | 0.02 | 0.01 | 94 | 1019.3 |
| 20260831080104 | 64 | 144 | 0.0 | 2.0 | 0.00 | 0.02 | 0.01 | 94 | 1019.2 |
| 20260831075604 | 64 | 144 | 2.0 | 3.0 | 0.00 | 0.02 | 0.01 | 94 | 1019.1 |
| 20260831075104 | 64 | 144 | 0.0 | 1.0 | 0.00 | 0.02 | 0.01 | 94 | 1019.2 |
| 20260831074603 | 65 | 144 | 0.0 | 1.0 | 0.00 | 0.02 | 0.01 | 94 | 1019.1 |
| 20260831074104 | 65 | 144 | 1.0 | 2.0 | 0.00 | 0.02 | 0.01 | 94 | 1019.1 |
| 20260831073604 | 65 | 144 | 1.0 | 2.0 | 0.00 | 0.02 | 0.01 | 94 | 1019.1 |
| 20260831073104 | 65 | 144 | 1.0 | 2.0 | 0.00 | 0.02 | 0.01 | 93 | 1019.3 |
| 20260831072604 | 65 | 144 | 0.0 | 2.0 | 0.01 | 0.02 | 0.01 | 93 | 1019.4 |
| 20260831072104 | 65 | 144 | 1.0 | 2.0 | 0.01 | 0.02 | 0.01 | 93 | 1019.2 |
| 20260831071604 | 65 | 144 | 0.0 | 1.0 | 0.01 | 0.02 | 0.01 | 93 | 1019.2 |
| 20260831071104 | 65 | 144 | 0.0 | 1.0 | 0.01 | 0.02 | 0.01 | 94 | 1019.1 |
| 20260831070607 | 66 | 144 | 0.0 | 2.0 | 0.01 | 0.02 | 0.01 | 93 | 1019.0 |
| 20260831070107 | 66 | 144 | 0.0 | 0.0 | 0.01 | 0.02 | 0.01 | 93 | 1019.0 |
| 20260831065607 | 66 | 144 | 0.0 | 2.0 | 0.01 | 0.02 | 0.01 | 93 | 1019.0 |
| 20260831065107 | 66 | 143 | 1.0 | 2.0 | 0.01 | 0.02 | 0.01 | 94 | 1019.1 |
| 20260831064608 | 66 | 143 | 0.0 | 2.0 | 0.01 | 0.02 | 0.01 | 94 | 1019.1 |
| 20260831064107 | 66 | 212 | 1.0 | 3.0 | 0.01 | 0.02 | 0.01 | 93 | 1018.9 |
| 20260831063608 | 66 | 215 | 1.0 | 3.0 | 0.01 | 0.02 | 0.01 | 93 | 1018.7 |
| 20260831062607 | 66 | 209 | 1.0 | 2.0 | 0.00 | 0.01 | 0.00 | 93 | 1018.3 |
| 20260831062107 | 67 | 210 | 0.0 | 1.0 | 0.00 | 0.01 | 0.00 | 93 | 1018.5 |
| 20260831061606 | 67 | 210 | 1.0 | 3.0 | 0.00 | 0.01 | 0.00 | 93 | 1018.7 |
| 20260831061107 | 67 | 258 | 1.0 | 2.0 | 0.00 | 0.01 | 0.00 | 93 | 1018.9 |
| 20260831060608 | 67 | 265 | 1.0 | 3.0 | 0.00 | 0.01 | 0.00 | 93 | 1018.8 |
| 20260831060107 | 67 | 215 | 0.0 | 2.0 | 0.00 | 0.01 | 0.00 | 93 | 1018.7 |
| 20260831055107 | 68 | 142 | 0.0 | 0.0 | 0.00 | 0.01 | 0.00 | 93 | 1018.6 |
| 20260831054608 | 68 | 142 | 0.0 | 0.0 | 0.00 | 0.01 | 0.00 | 93 | 1018.7 |
| 20260831054107 | 68 | 142 | 1.0 | 2.0 | 0.00 | 0.01 | 0.00 | 93 | 1018.7 |
| 20260831053607 | 68 | 142 | 1.0 | 1.0 | 0.00 | 0.01 | 0.00 | 93 | 1018.6 |
| 20260831053106 | 69 | 142 | 1.0 | 2.0 | 0.00 | 0.01 | 0.00 | 93 | 1018.6 |
| 20260831052607 | 69 | 142 | 1.0 | 8.0 | 0.00 | 0.01 | 0.00 | 93 | 1018.6 |
| 20260831051607 | 69 | 240 | 1.0 | 3.0 | 0.00 | 0.01 | 0.00 | 93 | 1018.7 |
| 20260831051107 | 69 | 139 | 0.0 | 2.0 | 0.00 | 0.01 | 0.00 | 93 | 1018.7 |
| 20260831050607 | 70 | 139 | 0.0 | 2.0 | 0.00 | 0.01 | 0.00 | 93 | 1018.6 |
| 20260831045107 | 70 | 240 | 0.0 | 1.0 | 0.00 | 0.01 | 0.00 | 94 | 1018.6 |
| 20260831044607 | 70 | 240 | 0.0 | 0.0 | 0.00 | 0.01 | 0.00 | 94 | 1018.5 |
| 20260831044107 | 70 | 241 | 0.0 | 1.0 | 0.00 | 0.01 | 0.00 | 94 | 1018.5 |
| 20260831043107 | 71 | 240 | 0.0 | 2.0 | 0.00 | 0.01 | 0.00 | 94 | 1018.4 |
| 20260831042607 | 71 | 240 | 0.0 | 2.0 | 0.00 | 0.01 | 0.00 | 94 | 1018.4 |
| 20260831042107 | 71 | 240 | 0.0 | 1.0 | 0.00 | 0.01 | 0.00 | 94 | 1018.5 |
| 20260831041607 | 71 | 240 | 0.0 | 2.0 | 0.00 | 0.01 | 0.00 | 94 | 1018.5 |
| 20260831041107 | 71 | 240 | 0.0 | 1.0 | 0.00 | 0.01 | 0.00 | 94 | 1018.5 |
| 20260831040606 | 71 | 240 | 0.0 | 1.0 | 0.00 | 0.01 | 0.00 | 94 | 1018.4 |
| 20260831040107 | 71 | 240 | 1.0 | 3.0 | 0.00 | 0.01 | 0.00 | 94 | 1018.4 |
| 20260831035607 | 71 | 194 | 1.0 | 3.0 | 0.00 | 0.01 | 0.01 | 94 | 1018.4 |
| 20260831035107 | 71 | 225 | 0.0 | 1.0 | 0.00 | 0.01 | 0.01 | 94 | 1018.4 |
| 20260831034607 | 71 | 225 | 0.0 | 1.0 | 0.00 | 0.01 | 0.01 | 93 | 1018.4 |
| 20260831034107 | 71 | 224 | 0.0 | 2.0 | 0.00 | 0.01 | 0.01 | 93 | 1018.4 |
| 20260831033107 | 71 | 175 | 0.0 | 2.0 | 0.00 | 0.01 | 0.01 | 93 | 1018.5 |
| 20260831032607 | 71 | 175 | 0.0 | 2.0 | 0.00 | 0.01 | 0.01 | 93 | 1018.5 |
| 20260831032107 | 71 | 175 | 1.0 | 3.0 | 0.00 | 0.01 | 0.01 | 93 | 1018.5 |
| 20260831031107 | 71 | 196 | 1.0 | 3.0 | 0.00 | 0.01 | 0.01 | 93 | 1018.4 |
| 20260831030607 | 71 | 170 | 1.0 | 2.0 | 0.00 | 0.01 | 0.01 | 93 | 1018.4 |
| 20260831030111 | 71 | 181 | 1.0 | 3.0 | 0.00 | 0.01 | 0.01 | 93 | 1018.5 |
| 20260831025607 | 71 | 180 | 2.0 | 3.0 | 0.00 | 0.01 | 0.01 | 93 | 1018.6 |
| 20260831025107 | 71 | 159 | 1.0 | 3.0 | 0.00 | 0.01 | 0.01 | 93 | 1018.5 |
| 20260831024607 | 72 | 209 | 2.0 | 9.0 | 0.00 | 0.01 | 0.01 | 93 | 1018.5 |
| 20260831024107 | 72 | 211 | 0.0 | 3.0 | 0.00 | 0.01 | 0.01 | 93 | 1018.6 |
| 20260831023607 | 72 | 167 | 2.0 | 5.0 | 0.00 | 0.01 | 0.01 | 93 | 1018.6 |
| 20260831023107 | 72 | 139 | 1.0 | 3.0 | 0.00 | 0.01 | 0.01 | 93 | 1018.5 |
| 20260831022107 | 72 | 217 | 1.0 | 2.0 | 0.00 | 0.01 | 0.01 | 93 | 1018.4 |
| 20260831021607 | 72 | 158 | 1.0 | 5.0 | 0.01 | 0.01 | 0.01 | 93 | 1018.4 |
| 20260831021107 | 72 | 168 | 0.0 | 2.0 | 0.01 | 0.01 | 0.01 | 93 | 1018.4 |
| 20260831020607 | 72 | 186 | 1.0 | 3.0 | 0.01 | 0.01 | 0.01 | 93 | 1018.2 |
| 20260831020107 | 72 | 189 | 1.0 | 3.0 | 0.01 | 0.01 | 0.01 | 92 | 1018.3 |
| 20260831015607 | 72 | 165 | 1.0 | 5.0 | 0.01 | 0.01 | 0.01 | 92 | 1018.3 |
| 20260831015107 | 72 | 137 | 1.0 | 3.0 | 0.01 | 0.01 | 0.01 | 92 | 1018.3 |
| 20260831014607 | 72 | 186 | 2.0 | 5.0 | 0.01 | 0.01 | 0.01 | 92 | 1018.3 |
| 20260831014107 | 72 | 150 | 1.0 | 2.0 | 0.01 | 0.01 | 0.01 | 91 | 1018.2 |
| 20260831013606 | 72 | 151 | 0.0 | 1.0 | 0.01 | 0.01 | 0.01 | 91 | 1018.2 |
| 20260831012606 | 72 | 151 | 0.0 | 1.0 | 0.01 | 0.01 | 0.01 | 90 | 1018.2 |
| 20260831012107 | 72 | 151 | 0.0 | 0.0 | 0.01 | 0.01 | 0.01 | 89 | 1018.1 |
| 20260831011606 | 72 | 151 | 0.0 | 0.0 | 0.00 | 0.00 | 0.00 | 89 | 1018.1 |
| 20260831011107 | 72 | 151 | 0.0 | 1.0 | 0.00 | 0.00 | 0.00 | 89 | 1018.1 |
| 20260831005107 | 73 | 151 | 0.0 | 0.0 | 0.00 | 0.00 | 0.00 | 88 | 1018.2 |
| 20260831004607 | 73 | 151 | 0.0 | 0.0 | 0.00 | 0.00 | 0.00 | 88 | 1018.1 |
| 20260831003107 | 73 | 151 | 0.0 | 0.0 | 0.00 | 0.00 | 0.00 | 87 | 1018.0 |
| 20260831002607 | 73 | 151 | 0.0 | 0.0 | 0.00 | 0.00 | 0.00 | 87 | 1018.0 |
| 20260831002107 | 73 | 151 | 0.0 | 0.0 | 0.00 | 0.00 | 0.00 | 87 | 1018.0 |
| 20260831001607 | 73 | 151 | 0.0 | 0.0 | 0.00 | 0.00 | 0.00 | 87 | 1017.9 |
| 20260831001107 | 73 | 151 | 0.0 | 0.0 | 0.00 | 0.00 | 0.00 | 87 | 1017.9 |
| 20260831000606 | 73 | 151 | 0.0 | 0.0 | 0.00 | 0.00 | 0.00 | 86 | 1017.8 |
| 20260831000106 | 74 | 151 | 0.0 | 1.0 | 0.00 | 0.00 | 0.00 | 86 | 1017.9 |
| 20260830235606 | 74 | 151 | 0.0 | 1.0 | 0.00 | 0.00 | 0.00 | 86 | 1017.7 |
| 20260830234606 | 74 | 151 | 0.0 | 0.0 | 0.00 | 0.00 | 0.00 | 85 | 1017.6 |
| 20260830234107 | 74 | 151 | 0.0 | 0.0 | 0.00 | 0.00 | 0.00 | 85 | 1017.6 |
| 20260830233606 | 74 | 151 | 0.0 | 1.0 | 0.00 | 0.00 | 0.00 | 84 | 1017.7 |
| 20260830233106 | 74 | 151 | 0.0 | 2.0 | 0.00 | 0.00 | 0.00 | 84 | 1017.7 |
| 20260830232606 | 74 | 151 | 0.0 | 1.0 | 0.00 | 0.00 | 0.00 | 84 | 1017.6 |
| 20260830232106 | 74 | 151 | 0.0 | 0.0 | 0.00 | 0.00 | 0.00 | 83 | 1017.6 |
| 20260830231620 | 75 | 151 | 0.0 | 1.0 | 0.00 | 0.00 | 0.00 | 83 | 1017.6 |
| 20260830231106 | 75 | 151 | 0.0 | 1.0 | 0.00 | 0.00 | 0.00 | 83 | 1017.6 |
| 20260830230607 | 75 | 151 | 0.0 | 1.0 | 0.00 | 0.00 | 0.00 | 83 | 1017.7 |
| 20260830230107 | 75 | 151 | 0.0 | 1.0 | 0.00 | 0.00 | 0.00 | 82 | 1017.7 |
| 20260830225606 | 75 | 151 | 1.0 | 3.0 | 0.00 | 0.00 | 0.00 | 82 | 1017.9 |
| 20260830225106 | 75 | 218 | 1.0 | 2.0 | 0.00 | 0.00 | 0.00 | 81 | 1017.8 |
| 20260830224606 | 75 | 206 | 0.0 | 1.0 | 0.00 | 0.00 | 0.00 | 81 | 1017.7 |
| 20260830224106 | 75 | 206 | 1.0 | 3.0 | 0.00 | 0.00 | 0.00 | 81 | 1017.7 |
| 20260830223607 | 76 | 225 | 0.0 | 3.0 | 0.00 | 0.00 | 0.00 | 81 | 1017.7 |
| 20260830223107 | 76 | 211 | 0.0 | 1.0 | 0.00 | 0.00 | 0.00 | 80 | 1017.8 |
| 20260830222606 | 76 | 211 | 2.0 | 3.0 | 0.00 | 0.00 | 0.00 | 80 | 1017.8 |
| 20260830222107 | 76 | 240 | 1.0 | 3.0 | 0.00 | 0.00 | 0.00 | 80 | 1017.8 |
| 20260830221107 | 76 | 210 | 0.0 | 3.0 | 0.00 | 0.00 | 0.00 | 79 | 1017.9 |
| 20260830220606 | 76 | 236 | 0.0 | 5.0 | 0.00 | 0.00 | 0.00 | 79 | 1017.9 |
| 20260830215606 | 76 | 242 | 2.0 | 3.0 | 0.00 | 0.00 | 0.00 | 78 | 1017.7 |
| 20260830215107 | 76 | 188 | 1.0 | 5.0 | 0.00 | 0.00 | 0.00 | 78 | 1017.7 |
| 20260830214607 | 76 | 207 | 1.0 | 5.0 | 0.00 | 0.00 | 0.00 | 78 | 1017.8 |
| 20260830213607 | 77 | 202 | 1.0 | 3.0 | 0.00 | 0.00 | 0.00 | 77 | 1017.6 |
| 20260830213106 | 77 | 148 | 0.0 | 2.0 | 0.00 | 0.00 | 0.00 | 77 | 1017.7 |
| 20260830212606 | 77 | 148 | 0.0 | 1.0 | 0.00 | 0.00 | 0.00 | 78 | 1017.7 |
| 20260830212106 | 77 | 148 | 1.0 | 3.0 | 0.00 | 0.00 | 0.00 | 77 | 1017.7 |
| 20260830211106 | 77 | 136 | 1.0 | 3.0 | 0.00 | 0.00 | 0.00 | 76 | 1017.8 |
| 20260830210606 | 77 | 140 | 1.0 | 3.0 | 0.00 | 0.00 | 0.00 | 76 | 1017.8 |
| 20260830210107 | 77 | 169 | 0.0 | 2.0 | 0.00 | 0.00 | 0.00 | 76 | 1017.9 |
| 20260830205606 | 78 | 171 | 0.0 | 1.0 | 0.00 | 0.00 | 0.00 | 77 | 1017.9 |
| 20260830205106 | 78 | 170 | 1.0 | 5.0 | 0.00 | 0.00 | 0.00 | 73 | 1018.0 |
| 20260830204606 | 78 | 176 | 1.0 | 2.0 | 0.00 | 0.00 | 0.00 | 74 | 1018.1 |
| 20260830204106 | 78 | 177 | 0.0 | 3.0 | 0.00 | 0.00 | 0.00 | 75 | 1018.0 |
| 20260830203606 | 78 | 183 | 1.0 | 3.0 | 0.00 | 0.00 | 0.00 | 74 | 1018.0 |
| 20260830203106 | 78 | 159 | 1.0 | 2.0 | 0.00 | 0.00 | 0.00 | 73 | 1018.0 |
| 20260830202106 | 78 | 230 | 1.0 | 3.0 | 0.00 | 0.00 | 0.00 | 72 | 1018.1 |
| 20260830201606 | 78 | 145 | 0.0 | 1.0 | 0.00 | 0.00 | 0.00 | 72 | 1018.1 |
| 20260830200606 | 79 | 246 | 1.0 | 5.0 | 0.00 | 0.00 | 0.00 | 69 | 1018.2 |
| 20260830200107 | 79 | 144 | 1.0 | 7.0 | 0.00 | 0.00 | 0.00 | 69 | 1018.1 |
| 20260830195606 | 79 | 164 | 1.0 | 7.0 | 0.00 | 0.00 | 0.00 | 71 | 1018.1 |
| 20260830194606 | 80 | 153 | 1.0 | 3.0 | 0.00 | 0.00 | 0.00 | 70 | 1018.2 |
| 20260830194107 | 80 | 252 | 2.0 | 3.0 | 0.00 | 0.00 | 0.00 | 69 | 1018.3 |
| 20260830193606 | 80 | 244 | 1.0 | 3.0 | 0.00 | 0.00 | 0.00 | 67 | 1018.2 |
| 20260830193106 | 80 | 240 | 0.0 | 2.0 | 0.00 | 0.00 | 0.00 | 67 | 1018.4 |
| 20260830192606 | 80 | 136 | 0.0 | 2.0 | 0.00 | 0.00 | 0.00 | 66 | 1018.6 |
| 20260830192106 | 81 | 212 | 1.0 | 5.0 | 0.00 | 0.00 | 0.00 | 64 | 1018.6 |
| 20260830191606 | 81 | 231 | 1.0 | 3.0 | 0.00 | 0.00 | 0.00 | 65 | 1018.7 |
| 20260830191106 | 81 | 185 | 1.0 | 2.0 | 0.00 | 0.00 | 0.00 | 64 | 1018.8 |
| 20260830190606 | 82 | 237 | 1.0 | 3.0 | 0.00 | 0.00 | 0.00 | 63 | 1018.9 |
| 20260830190107 | 82 | 239 | 2.0 | 5.0 | 0.00 | 0.00 | 0.00 | 61 | 1019.0 |
| 20260830185106 | 83 | 223 | 1.0 | 3.0 | 0.00 | 0.00 | 0.00 | 58 | 1019.1 |
| 20260830184607 | 83 | 210 | 3.0 | 6.0 | 0.00 | 0.00 | 0.00 | 55 | 1019.2 |
| 20260830184107 | 83 | 235 | 1.0 | 3.0 | 0.00 | 0.00 | 0.00 | 56 | 1019.2 |
| 20260830183607 | 83 | 186 | 2.0 | 6.0 | 0.00 | 0.00 | 0.00 | 60 | 1019.2 |
| 20260830182606 | 83 | 188 | 2.0 | 5.0 | 0.00 | 0.00 | 0.00 | 59 | 1019.2 |
| 20260830182106 | 83 | 223 | 2.0 | 7.0 | 0.00 | 0.00 | 0.00 | 59 | 1019.3 |
| 20260830181607 | 83 | 223 | 1.0 | 5.0 | 0.00 | 0.00 | 0.00 | 58 | 1019.4 |
| 20260830181106 | 83 | 208 | 2.0 | 5.0 | 0.00 | 0.00 | 0.00 | 61 | 1019.4 |
| 20260830180606 | 83 | 177 | 3.0 | 7.0 | 0.00 | 0.00 | 0.00 | 56 | 1019.4 |
| 20260830180107 | 83 | 155 | 1.0 | 5.0 | 0.00 | 0.00 | 0.00 | 60 | 1019.4 |
| 20260830175606 | 82 | 240 | 1.0 | 3.0 | 0.00 | 0.00 | 0.00 | 64 | 1019.5 |
| 20260830174606 | 82 | 217 | 1.0 | 6.0 | 0.00 | 0.00 | 0.00 | 59 | 1019.6 |
| 20260830173607 | 82 | 227 | 1.0 | 3.0 | 0.00 | 0.00 | 0.00 | 59 | 1019.7 |
| 20260830173106 | 83 | 173 | 1.0 | 3.0 | 0.00 | 0.00 | 0.00 | 60 | 1019.7 |
| 20260830172606 | 83 | 194 | 2.0 | 3.0 | 0.00 | 0.00 | 0.00 | 56 | 1019.8 |
| 20260830172107 | 83 | 225 | 2.0 | 6.0 | 0.00 | 0.00 | 0.00 | 58 | 1019.8 |
| 20260830171606 | 83 | 223 | 1.0 | 3.0 | 0.00 | 0.00 | 0.00 | 57 | 1019.8 |
| 20260830171107 | 83 | 225 | 2.0 | 3.0 | 0.00 | 0.00 | 0.00 | 58 | 1019.8 |
| 20260830170606 | 82 | 203 | 2.0 | 5.0 | 0.00 | 0.00 | 0.00 | 62 | 1019.9 |
| 20260830170106 | 82 | 156 | 2.0 | 7.0 | 0.00 | 0.00 | 0.00 | 61 | 1020.0 |
| 20260830165606 | 82 | 199 | 1.0 | 3.0 | 0.00 | 0.00 | 0.00 | 62 | 1020.0 |
| 20260830165107 | 82 | 198 | 2.0 | 3.0 | 0.00 | 0.00 | 0.00 | 60 | 1020.1 |
| 20260830164606 | 82 | 241 | 1.0 | 6.0 | 0.00 | 0.00 | 0.00 | 62 | 1020.1 |
| 20260830163606 | 82 | 236 | 2.0 | 6.0 | 0.00 | 0.00 | 0.00 | 56 | 1020.2 |